WetterOnline ( https://www.wetteronline.ch )

Wetter aktuell Regensburg

Aktuelles Wetter: Regensburg/Oberhub (371m)

6-stündlich | Neueste Meldungen
Ortszeit Temperatur Wetter
Di, 20.10. 2:00 1.1° C wolkig
Mo, 19.10. 20:00 5.6° C bedeckt
Mo, 19.10. 14:00 8.7° C bedeckt
Mo, 19.10. 8:00 6.0° C bedeckt
Mo, 19.10. 2:00 6.1° C bedeckt
So, 18.10. 20:00 7.3° C bedeckt
So, 18.10. 14:00 10.1° C wolkig
So, 18.10. 8:00 4.6° C Nebel
Ortszeit Temperatur Wetter
Di, 20.10. 5:30 -0.1° C bewölkt
Di, 20.10. 5:20 -0.1° C bewölkt
Di, 20.10. 5:10 -0.1° C wolkig
Di, 20.10. 5:00 -0.1° C wolkig
Di, 20.10. 4:50 -0.1° C wolkig
Di, 20.10. 4:40 -0.1° C wolkig
Di, 20.10. 4:30 0.1° C wolkig
Di, 20.10. 4:00 0.2° C wolkig
Di, 20.10. 3:30 0.9° C bewölkt
Di, 20.10. 3:00 0.4° C wolkig
Di, 20.10. 2:30 1.0° C wolkig
Ortszeit Relative Feuchte Sichtweite
Di, 20.10. 2:00 96% 14 km
Mo, 19.10. 20:00 88% 30 km
Mo, 19.10. 14:00 73% 27 km
Mo, 19.10. 8:00 94% 13 km
Mo, 19.10. 2:00 88% 30 km
So, 18.10. 20:00 86% 30 km
So, 18.10. 14:00 68% 60 km
So, 18.10. 8:00 99% 100 m
Ortszeit Relative Feuchte Sichtweite
Di, 20.10. 5:30 96% 13 km
Di, 20.10. 5:20 96% -
Di, 20.10. 5:10 96% -
Di, 20.10. 5:00 96% 14 km
Di, 20.10. 4:50 96% -
Di, 20.10. 4:40 96% -
Di, 20.10. 4:30 96% 17 km
Di, 20.10. 4:00 96% 11 km
Di, 20.10. 3:30 96% 20 km
Di, 20.10. 3:00 96% 8 km
Di, 20.10. 2:30 96% 19 km
Ortszeit Niederschlagsmenge Niederschlagsart
Di, 20.10. 2:00 0.0 l/m2 in 6 Std. -
Mo, 19.10. 20:00 0.0 l/m2 in 12 Std. -
Mo, 19.10. 14:00 0.0 l/m2 in 6 Std. -
Mo, 19.10. 8:00 0.0 l/m2 in 12 Std. -
Mo, 19.10. 2:00 0.0 l/m2 in 6 Std. -
So, 18.10. 20:00 0.0 l/m2 in 12 Std. -
So, 18.10. 14:00 0.0 l/m2 in 6 Std. -
So, 18.10. 8:00 0.1 l/m2 in 12 Std. -
Ortszeit Niederschlagsmenge Niederschlagsart
Di, 20.10. 5:30 0.0 l/m2 in 1 Std. -
Di, 20.10. 5:20 keine Meldung -
Di, 20.10. 5:10 keine Meldung -
Di, 20.10. 5:00 0.0 l/m2 in 1 Std. -
Di, 20.10. 4:50 keine Meldung -
Di, 20.10. 4:40 keine Meldung -
Di, 20.10. 4:30 0.0 l/m2 in 1 Std. -
Di, 20.10. 4:00 0.0 l/m2 in 1 Std. -
Di, 20.10. 3:30 0.0 l/m2 in 1 Std. -
Di, 20.10. 3:00 0.0 l/m2 in 1 Std. -
Di, 20.10. 2:30 0.0 l/m2 in 1 Std. -
Ortszeit Stärke Spitze Richtung
km/h Bft. km/h Grad Sektor
Di, 20.10. 2:00 2 1 13 180° S
Mo, 19.10. 20:00 7 2 14 30° NO
Mo, 19.10. 14:00 6 1 19 120° SO
Mo, 19.10. 8:00 2 1 9 270° W
Mo, 19.10. 2:00 4 1 11 260° W
So, 18.10. 20:00 0 0 18 - -
So, 18.10. 14:00 7 2 22 280° W
So, 18.10. 8:00 0 0 7 - -
Ortszeit Stärke Spitze Richtung
km/h Bft. km/h Grad Sektor
Di, 20.10. 5:30 4 1 7 10° N
Di, 20.10. 5:20 4 1 - 10° N
Di, 20.10. 5:10 4 1 - 350° N
Di, 20.10. 5:00 4 1 7 10° N
Di, 20.10. 4:50 4 1 - 10° N
Di, 20.10. 4:40 4 1 - 30° NO
Di, 20.10. 4:30 0 0 4 - -
Di, 20.10. 4:00 0 0 7 - -
Di, 20.10. 3:30 4 1 7 130° SO
Di, 20.10. 3:00 4 1 4 350° N
Di, 20.10. 2:30 0 0 4 - -
Ortszeit Untergrenze Bedeckung Gattung
total tief tief mittel hoch
Di, 20.10. 2:00 7800 m 8/8 0/8 - - -
Mo, 19.10. 20:00 1500 m 8/8 8/8 - - -
Mo, 19.10. 14:00 1500 m 8/8 8/8 - - -
Mo, 19.10. 8:00 1470 m 8/8 8/8 - - -
Mo, 19.10. 2:00 1500 m 8/8 8/8 - - -
So, 18.10. 20:00 1500 m 8/8 8/8 - - -
So, 18.10. 14:00 1170 m 5/8 5/8 - - -
So, 18.10. 8:00 <30 m 8/8 0/8 - - -
Ortszeit Bedeckungsgrad in Achtel und Wolkenuntergrenze
Di, 20.10. 5:30 6(270m) 7(9000m) 7(10500m)
Di, 20.10. 5:20 6(270m) 7(9000m) 7(10500m)
Di, 20.10. 5:10 4(270m) 7(9000m)
Di, 20.10. 5:00 8(9000m) 7(9000m)
Di, 20.10. 4:50 8(9000m)
Di, 20.10. 4:40 8(9000m)
Di, 20.10. 4:30 8(9000m) 8(10500m)
Di, 20.10. 4:00 1(7200m) 8(9000m)
Di, 20.10. 3:30 6(6900m) 8(7800m) 8(8700m)
Di, 20.10. 3:00 8(7200m) 8(9000m) 8(9000m)
Di, 20.10. 2:30 8(7500m) 8(10500m) 8(10500m)
Ortszeit Luftdruck NN (hPa) Tendenz (hPa in 3 Std.)
Di, 20.10. 2:00 1023 - 1,3
Mo, 19.10. 20:00 1024 + 0,4
Mo, 19.10. 14:00 1025 - 1,2
Mo, 19.10. 8:00 1025 + 0,3
Mo, 19.10. 2:00 1025 + 0,3
So, 18.10. 20:00 1024 + 0,9
So, 18.10. 14:00 1023 - 0,3
So, 18.10. 8:00 1023 + 0,9
Ortszeit Luftdruck NN (hPa) Tendenz (hPa in 3 Std.)
Di, 20.10. 5:30 1022 - 1,1
Di, 20.10. 5:20 1022 keine Meldung
Di, 20.10. 5:10 1022 keine Meldung
Di, 20.10. 5:00 1022 - 1,3
Di, 20.10. 4:50 1022 keine Meldung
Di, 20.10. 4:40 1022 keine Meldung
Di, 20.10. 4:30 1022 - 1,5
Di, 20.10. 4:00 1022 - 1,7
Di, 20.10. 3:30 1022 - 1,5
Di, 20.10. 3:00 1022 - 1,6
Di, 20.10. 2:30 1023 - 1,7
Ortszeit Schneehöhe (cm)
Di, 20.10. 2:00 0
Mo, 19.10. 20:00 0
Mo, 19.10. 14:00 0
Mo, 19.10. 8:00 0
Mo, 19.10. 2:00 0
So, 18.10. 20:00 0
So, 18.10. 14:00 0
So, 18.10. 8:00 0
Ortszeit Schneehöhe (cm)
Di, 20.10. 5:30 0
Di, 20.10. 5:20 0
Di, 20.10. 5:10 0
Di, 20.10. 5:00 0
Di, 20.10. 4:50 0
Di, 20.10. 4:40 0
Di, 20.10. 4:30 0
Di, 20.10. 4:00 0
Di, 20.10. 3:30 0
Di, 20.10. 3:00 0
Di, 20.10. 2:30 0
Link zu dieser Seite / Seite empfehlen

Das Wetter in ...